Disclaimer

Please do not use the information listed here in-flight or in-navigation, as they are not provided to us by the airports but are provided by volunteers, so they might be outdated.

Search


Regions


Airport information page

Radio informations:
Tower (TWR) - 118.5 MHz
Ground (GND) - 121.9 MHz

Airport informations:
Latitude: 39° 42' 36.73" N
Longitude: 039° 31' 37.21" E
Elevation: 3783 feet - 1153 meters
Operating hours: Remarks
Operating agency: Military-civil joint use airport
Timezone: UTC+2(+3DT) - Dates notified by NOTAM
Fuel: Aviation Gasoline (AVGAS), octane unknown.

Runway information:
11/29 - 9842 x 148 feet< - >3000 x 45 meters
13/31 - 5800 x 137 feet< - >1768 x 42 meters

Recent METARs:
LTCD 171250Z 25012KT 9999 BKN040 BKN090 M01/M09 Q1012 NOSIG
LTCD 171350Z 25014KT 9999 BKN040 BKN090 M02/M08 Q1013 NOSIG
LTCD 171350Z 25014KT 9999 BKN040 BKN090 M02/M08 Q1013 NOSIG

Airport on the map: